This is the latest recevied weather packets stored in our database for station/object KD4EED. If no packets are shown the sender has not sent any weather packets the latest 10 day(s).
| Time | Temp. | Humidity | Pressure | Rain* | Wind** | Luminosity | Snow |
|---|---|---|---|---|---|---|---|
| 1788274383 | 16.11° C | 96% | 1012.8 hPa | - | - | 47 W/m² | - |
| 1788274079 | 16.11° C | 95% | 1012.8 hPa | - | - | 35 W/m² | - |
| 1788273774 | 15.56° C | 95% | 1012.8 hPa | - | - | 27 W/m² | - |
| 1788273470 | 15.56° C | 95% | 1012.6 hPa | - | - | 18 W/m² | - |
| 1788273166 | 15.56° C | 95% | 1012.7 hPa | - | - | 17 W/m² | - |
| 1788272862 | 15.56° C | 95% | 1012.4 hPa | - | - | 15 W/m² | - |
| 1788272561 | 15° C | 95% | 1012.4 hPa | - | - | 14 W/m² | - |
| 1788272257 | 15° C | 95% | 1012.3 hPa | - | - | 14 W/m² | - |
| 1788271957 | 15° C | 95% | 1012.3 hPa | - | - | 13 W/m² | - |
| 1788271656 | 15° C | 94% | 1012.3 hPa | - | - | 12 W/m² | - |
| 1788271354 | 15° C | 94% | 1012.2 hPa | - | - | 11 W/m² | - |
| 1788271050 | 15° C | 94% | 1012.1 hPa | - | - | 9 W/m² | - |
| 1788270749 | 15° C | 94% | 1012.2 hPa | - | - | 8 W/m² | - |
| 1788270446 | 15° C | 94% | 1012.2 hPa | - | - | 7 W/m² | - |
| 1788270146 | 15° C | 94% | 1012.2 hPa | - | - | 5 W/m² | - |
| 1788269845 | 15° C | 94% | 1012.1 hPa | - | - | 4 W/m² | - |
| 1788269544 | 15° C | 94% | 1012.1 hPa | - | - | 3 W/m² | - |
| 1788269243 | 15° C | 94% | 1012.1 hPa | - | - | 2 W/m² | - |
| 1788268951 | 15° C | 94% | 1012.1 hPa | - | - | 1 W/m² | - |
| 1788268633 | 15° C | 94% | 1012.2 hPa | - | - | 0 W/m² | - |
| 1788268332 | 15° C | 93% | 1012.3 hPa | - | - | 0 W/m² | - |
| 1788268028 | 15° C | 93% | 1012.1 hPa | - | - | 0 W/m² | - |
| 1788267727 | 15° C | 93% | 1012.1 hPa | - | - | 0 W/m² | - |
| 1788267425 | 15° C | 93% | 1011.8 hPa | - | - | 0 W/m² | - |
| 1788267120 | 15° C | 93% | 1011.8 hPa | - | - | 0 W/m² | - |
* Rain since midnight (hover to see other rain measurements)
** Current wind speed in m/s (hover to see current wind gust speed)